Radiation Dose at Monitoring Post of Fukushima Daini Nuclear Power Station
Date,Time,MP-1(microSv/h),MP-2(microSv/h),MP-3(microSv/h),MP-4(microSv/h),MP-5(microSv/h),MP-6(microSv/h),MP-7(microSv/h),Wind Direction,Wind Velocity(m/s),Rain
2017/12/23,00:00,0.340,0.208,0.348,0.326,0.308,0.170,0.102,southwest,6.7,No
2017/12/23,00:10,0.342,0.208,0.349,0.328,0.307,0.171,0.104,southwest,7.3,No
2017/12/23,00:20,0.341,0.207,0.349,0.326,0.308,0.172,0.103,southwest,7.9,No
2017/12/23,00:30,0.340,0.208,0.348,0.326,0.306,0.172,0.103,southwest,7.1,No
2017/12/23,00:40,0.341,0.207,0.350,0.327,0.309,0.171,0.103,southwest,7.0,No
2017/12/23,00:50,0.341,0.206,0.349,0.327,0.309,0.172,0.103,southwest,5.9,No
2017/12/23,01:00,0.341,0.208,0.348,0.327,0.306,0.171,0.104,southwest,7.3,No
2017/12/23,01:10,0.339,0.207,0.350,0.327,0.307,0.172,0.104,southwest,9.8,No
2017/12/23,01:20,0.342,0.207,0.348,0.325,0.308,0.171,0.103,south-southwest,8.1,No
2017/12/23,01:30,0.340,0.209,0.347,0.327,0.308,0.172,0.103,south,6.4,No
2017/12/23,01:40,0.342,0.207,0.348,0.326,0.309,0.171,0.104,south-southwest,4.5,No
2017/12/23,01:50,0.342,0.209,0.349,0.326,0.309,0.171,0.103,south-southwest,5.1,No
2017/12/23,02:00,0.341,0.208,0.349,0.326,0.308,0.171,0.102,southwest,5.0,No
2017/12/23,02:10,0.341,0.207,0.346,0.326,0.308,0.172,0.102,southwest,3.2,No
2017/12/23,02:20,0.340,0.209,0.348,0.326,0.307,0.172,0.102,southwest,3.3,No
2017/12/23,02:30,0.341,0.208,0.348,0.327,0.309,0.171,0.103,southwest,8.4,No
2017/12/23,02:40,0.341,0.207,0.350,0.326,0.308,0.171,0.103,southwest,7.0,No
2017/12/23,02:50,0.341,0.208,0.349,0.326,0.308,0.171,0.103,southwest,6.5,No
2017/12/23,03:00,0.341,0.207,0.349,0.326,0.309,0.172,0.103,southwest,5.9,No
2017/12/23,03:10,0.341,0.208,0.350,0.327,0.309,0.171,0.103,southwest,5.3,No
2017/12/23,03:20,0.340,0.207,0.351,0.328,0.307,0.172,0.104,west,3.9,No
2017/12/23,03:30,0.341,0.207,0.350,0.328,0.308,0.172,0.104,northwest,2.0,No
2017/12/23,03:40,0.341,0.208,0.348,0.326,0.307,0.172,0.103,-,CALM,No
2017/12/23,03:50,0.342,0.208,0.348,0.327,0.309,0.172,0.103,-,CALM,No
2017/12/23,04:00,0.342,0.207,0.349,0.326,0.309,0.172,0.104,northwest,0.6,No
2017/12/23,04:10,0.340,0.206,0.349,0.326,0.308,0.172,0.103,west-southwest,1.1,No
2017/12/23,04:20,0.342,0.208,0.349,0.327,0.307,0.171,0.103,west-northwest,2.9,No
2017/12/23,04:30,0.342,0.207,0.350,0.326,0.307,0.172,0.102,west,2.9,No
2017/12/23,04:40,0.341,0.207,0.347,0.326,0.308,0.172,0.102,west-southwest,6.3,No
2017/12/23,04:50,0.339,0.208,0.348,0.326,0.308,0.172,0.102,west,4.8,No
2017/12/23,05:00,0.340,0.207,0.350,0.326,0.306,0.172,0.103,west-southwest,3.9,No
2017/12/23,05:10,0.340,0.208,0.348,0.326,0.307,0.172,0.103,west,2.5,No
2017/12/23,05:20,0.341,0.208,0.350,0.327,0.308,0.171,0.103,west-southwest,2.9,No
2017/12/23,05:30,0.340,0.208,0.348,0.326,0.307,0.172,0.103,west-southwest,2.8,No
2017/12/23,05:40,0.340,0.208,0.348,0.326,0.307,0.171,0.103,west-southwest,1.7,No
2017/12/23,05:50,0.341,0.208,0.349,0.325,0.309,0.171,0.102,west-southwest,1.9,No
2017/12/23,06:00,0.341,0.207,0.350,0.325,0.308,0.172,0.103,west-southwest,1.7,No
2017/12/23,06:10,0.341,0.208,0.348,0.325,0.309,0.172,0.103,west-northwest,1.6,No
2017/12/23,06:20,0.343,0.208,0.350,0.327,0.307,0.172,0.103,west,0.8,No
2017/12/23,06:30,0.342,0.208,0.349,0.327,0.309,0.172,0.102,-,CALM,No
2017/12/23,06:40,0.340,0.208,0.349,0.326,0.308,0.172,0.103,north,1.8,No
2017/12/23,06:50,0.342,0.207,0.350,0.325,0.308,0.171,0.104,northwest,1.9,No
2017/12/23,07:00,0.341,0.207,0.348,0.327,0.307,0.171,0.102,northwest,1.0,No
2017/12/23,07:10,0.342,0.208,0.349,0.325,0.308,0.172,0.103,northwest,1.7,No
2017/12/23,07:20,0.343,0.208,0.347,0.326,0.309,0.171,0.103,northwest,3.5,No
2017/12/23,07:30,0.340,0.208,0.349,0.326,0.307,0.170,0.103,north-northwest,5.1,No
2017/12/23,07:40,0.340,0.208,0.350,0.325,0.307,0.171,0.103,northwest,3.8,No
2017/12/23,07:50,0.341,0.207,0.348,0.326,0.307,0.170,0.103,west-northwest,4.2,No
2017/12/23,08:00,0.341,0.208,0.347,0.326,0.308,0.171,0.102,west-northwest,2.2,No
2017/12/23,08:10,0.340,0.207,0.349,0.324,0.308,0.172,0.103,west-northwest,3.4,No
2017/12/23,08:20,0.341,0.207,0.349,0.324,0.308,0.171,0.101,north-northwest,5.0,No
2017/12/23,08:30,0.340,0.208,0.347,0.324,0.307,0.171,0.102,north,3.9,No
2017/12/23,08:40,0.341,0.207,0.347,0.325,0.308,0.171,0.103,north,1.9,No
2017/12/23,08:50,0.341,0.207,0.347,0.324,0.308,0.170,0.102,-,CALM,No
2017/12/23,09:00,0.340,0.206,0.347,0.325,0.307,0.170,0.102,northeast,3.0,No
2017/12/23,09:10,0.339,0.207,0.347,0.323,0.307,0.169,0.102,north,1.1,No
2017/12/23,09:20,0.340,0.207,0.347,0.324,0.308,0.170,0.102,north,1.8,No
2017/12/23,09:30,0.340,0.206,0.348,0.324,0.308,0.170,0.102,north-northwest,2.7,No
2017/12/23,09:40,0.341,0.207,0.346,0.325,0.306,0.171,0.102,west-northwest,3.0,No
2017/12/23,09:50,0.340,0.205,0.346,0.324,0.308,0.171,0.102,west-northwest,2.7,No
2017/12/23,10:00,0.340,0.206,0.346,0.325,0.307,0.171,0.102,west-northwest,5.4,No
2017/12/23,10:10,0.341,0.207,0.348,0.324,0.307,0.172,0.103,west-northwest,5.3,No
2017/12/23,10:20,0.338,0.206,0.347,0.324,0.307,0.170,0.102,northwest,1.5,No
2017/12/23,10:30,0.338,0.208,0.348,0.324,0.307,0.171,0.102,-,CALM,No
2017/12/23,10:40,0.338,0.207,0.349,0.324,0.310,0.172,0.101,west-southwest,1.4,No
2017/12/23,10:50,0.337,0.205,0.348,0.326,0.306,0.170,0.101,northeast,2.6,No
2017/12/23,11:00,0.339,0.207,0.348,0.324,0.309,0.171,0.101,north,1.6,No
2017/12/23,11:10,0.337,0.207,0.347,0.327,0.307,0.171,0.102,west-northwest,7.8,No
2017/12/23,11:20,0.341,0.207,0.346,0.324,0.307,0.171,0.102,northwest,4.3,No
2017/12/23,11:30,0.338,0.205,0.348,0.326,0.306,0.170,0.104,west-northwest,4.9,No
2017/12/23,11:40,0.340,0.207,0.346,0.324,0.307,0.171,0.101,west-northwest,9.0,No
2017/12/23,11:50,0.337,0.206,0.347,0.328,0.307,0.170,0.103,northwest,7.1,No
2017/12/23,12:00,0.341,0.207,0.347,0.324,0.310,0.171,0.102,west-northwest,6.8,No
2017/12/23,12:10,0.339,0.207,0.347,0.325,0.306,0.171,0.101,west-northwest,4.8,No
2017/12/23,12:20,0.340,0.206,0.348,0.323,0.311,0.171,0.103,northwest,7.9,No
2017/12/23,12:30,0.337,0.207,0.346,0.327,0.306,0.172,0.102,northwest,4.2,No
2017/12/23,12:40,0.340,0.207,0.348,0.323,0.309,0.171,0.102,northwest,5.1,No
2017/12/23,12:50,0.337,0.206,0.348,0.323,0.307,0.171,0.102,west-northwest,4.8,No
2017/12/23,13:00,0.339,0.208,0.349,0.325,0.309,0.171,0.102,northwest,5.6,No
2017/12/23,13:10,0.339,0.207,0.346,0.325,0.308,0.171,0.102,northwest,5.8,No
2017/12/23,13:20,0.340,0.207,0.347,0.326,0.307,0.172,0.103,north-northwest,4.4,No
2017/12/23,13:30,0.339,0.206,0.348,0.324,0.311,0.171,0.102,north-northwest,4.8,No
2017/12/23,13:40,0.340,0.208,0.348,0.325,0.308,0.171,0.101,north-northwest,3.1,No
2017/12/23,13:50,0.342,0.208,0.349,0.322,0.310,0.171,0.102,north,2.5,No
2017/12/23,14:00,0.339,0.208,0.348,0.324,0.307,0.171,0.102,north-northwest,4.3,No
2017/12/23,14:10,0.342,0.207,0.348,0.325,0.309,0.171,0.103,northwest,5.0,No
2017/12/23,14:20,0.342,0.208,0.349,0.326,0.307,0.171,0.103,west-northwest,6.5,No
2017/12/23,14:30,0.339,0.209,0.347,0.325,0.307,0.170,0.102,west-northwest,5.9,No
2017/12/23,14:40,0.341,0.206,0.349,0.327,0.307,0.170,0.102,west-northwest,3.7,No
2017/12/23,14:50,0.340,0.207,0.347,0.325,0.308,0.170,0.102,northwest,5.5,No
2017/12/23,15:00,0.341,0.207,0.348,0.326,0.309,0.171,0.102,north-northwest,5.0,No
2017/12/23,15:10,0.341,0.208,0.350,0.325,0.308,0.170,0.102,northwest,5.9,No
2017/12/23,15:20,0.341,0.207,0.347,0.325,0.310,0.171,0.102,northwest,3.9,No
2017/12/23,15:30,0.342,0.207,0.347,0.326,0.310,0.171,0.103,northwest,3.4,No
2017/12/23,15:40,0.340,0.207,0.349,0.326,0.309,0.172,0.103,northwest,2.4,No
2017/12/23,15:50,0.340,0.208,0.347,0.326,0.310,0.170,0.102,northwest,3.4,No
2017/12/23,16:00,0.340,0.207,0.347,0.327,0.309,0.170,0.103,north,1.9,No
2017/12/23,16:10,0.341,0.207,0.349,0.326,0.309,0.170,0.102,northwest,2.0,No
2017/12/23,16:20,0.341,0.208,0.347,0.327,0.310,0.171,0.103,west,5.2,No
2017/12/23,16:30,0.341,0.207,0.347,0.327,0.309,0.171,0.102,northwest,2.7,No
2017/12/23,16:40,0.341,0.207,0.350,0.326,0.308,0.172,0.103,west-northwest,3.3,No
2017/12/23,16:50,0.340,0.208,0.348,0.326,0.308,0.172,0.102,northwest,2.4,No
2017/12/23,17:00,0.340,0.208,0.349,0.327,0.308,0.172,0.103,north,1.2,No
2017/12/23,17:10,0.340,0.207,0.348,0.326,0.309,0.172,0.102,east-northeast,1.2,No
2017/12/23,17:20,0.341,0.207,0.348,0.325,0.309,0.171,0.102,northeast,1.2,No
2017/12/23,17:30,0.341,0.206,0.348,0.326,0.308,0.172,0.103,north-northwest,3.9,No
2017/12/23,17:40,0.340,0.206,0.348,0.327,0.307,0.172,0.102,north-northwest,2.1,No
2017/12/23,17:50,0.340,0.207,0.349,0.326,0.309,0.172,0.103,northeast,1.1,No
2017/12/23,18:00,0.342,0.208,0.349,0.327,0.309,0.171,0.102,north-northeast,1.5,No
2017/12/23,18:10,0.341,0.208,0.347,0.325,0.308,0.172,0.103,west-northwest,1.2,No
2017/12/23,18:20,0.340,0.206,0.348,0.326,0.307,0.172,0.103,west-northwest,2.4,No
2017/12/23,18:30,0.342,0.208,0.350,0.325,0.309,0.171,0.103,north-northwest,0.9,No
2017/12/23,18:40,0.341,0.208,0.347,0.326,0.307,0.171,0.103,south-southwest,1.2,No
2017/12/23,18:50,0.340,0.208,0.349,0.327,0.308,0.172,0.102,southwest,3.4,No
2017/12/23,19:00,0.340,0.207,0.350,0.326,0.308,0.171,0.103,west-southwest,4.2,No
2017/12/23,19:10,0.340,0.208,0.349,0.326,0.309,0.171,0.102,west-southwest,5.6,No
2017/12/23,19:20,0.341,0.207,0.348,0.327,0.308,0.171,0.102,west,4.5,No
2017/12/23,19:30,0.340,0.207,0.349,0.327,0.308,0.171,0.103,northwest,2.2,No
2017/12/23,19:40,0.341,0.208,0.349,0.326,0.309,0.172,0.102,northwest,1.3,No
2017/12/23,19:50,0.341,0.208,0.348,0.327,0.308,0.171,0.103,-,CALM,No
2017/12/23,20:00,0.342,0.208,0.350,0.327,0.306,0.171,0.103,west-southwest,2.5,No
2017/12/23,20:10,0.341,0.207,0.349,0.327,0.307,0.172,0.103,west,5.3,No
2017/12/23,20:20,0.340,0.207,0.348,0.327,0.308,0.171,0.103,west,6.3,No
2017/12/23,20:30,0.340,0.208,0.348,0.325,0.309,0.170,0.103,west-northwest,4.3,No
2017/12/23,20:40,0.342,0.208,0.347,0.326,0.308,0.172,0.102,west,3.4,No
2017/12/23,20:50,0.341,0.207,0.349,0.327,0.307,0.172,0.102,west-southwest,4.1,No
2017/12/23,21:00,0.341,0.208,0.350,0.324,0.308,0.171,0.103,west,4.1,No
2017/12/23,21:10,0.341,0.208,0.348,0.325,0.307,0.172,0.102,west,3.5,No
2017/12/23,21:20,0.341,0.206,0.349,0.326,0.308,0.172,0.102,west-southwest,4.4,No
2017/12/23,21:30,0.340,0.207,0.349,0.326,0.308,0.172,0.103,west-northwest,3.7,No
2017/12/23,21:40,0.341,0.208,0.348,0.326,0.308,0.171,0.102,west-northwest,3.8,No
2017/12/23,21:50,0.340,0.206,0.347,0.325,0.308,0.170,0.103,west-northwest,4.5,No
2017/12/23,22:00,0.341,0.207,0.347,0.325,0.307,0.171,0.103,west-southwest,2.7,No
2017/12/23,22:10,0.342,0.208,0.349,0.326,0.308,0.171,0.102,west-northwest,2.1,No
2017/12/23,22:20,0.339,0.207,0.349,0.327,0.308,0.171,0.103,west-southwest,1.2,No
2017/12/23,22:30,0.340,0.206,0.349,0.326,0.307,0.171,0.103,west,4.9,No
2017/12/23,22:40,0.342,0.207,0.347,0.326,0.308,0.171,0.102,west,10.0,No
2017/12/23,22:50,0.340,0.208,0.348,0.326,0.307,0.171,0.102,west,9.5,No
2017/12/23,23:00,0.341,0.208,0.349,0.326,0.308,0.171,0.103,west,8.2,No
2017/12/23,23:10,0.341,0.207,0.349,0.326,0.308,0.171,0.102,west,7.8,No
2017/12/23,23:20,0.340,0.208,0.348,0.326,0.308,0.172,0.103,west,5.6,No
2017/12/23,23:30,0.341,0.208,0.348,0.327,0.306,0.172,0.102,west,6.3,No
2017/12/23,23:40,0.340,0.208,0.349,0.327,0.309,0.170,0.102,west,5.6,No
2017/12/23,23:50,0.342,0.206,0.349,0.326,0.307,0.170,0.102,west,6.1,No
